Location: Stull Observatory
(42.2506°N, 77.7903°W)
Time: 22:18:47
(UTC-04:00)

Daily predictions for brighter satellites

Satellite Brightness Start Highest point End
(mag) Time Altitude Azimuth Time Altitude Azimuth Time Altitude Azimuth
USA 234 4.0 21:00:20 10° E 21:06:32 47° NNE 21:12:45 10° NW
Envisat 3.7 21:03:42 10° SE 21:08:21 38° ENE 21:13:01 10° N
Meteor 2-9 Rocket 4.5 21:03:33 10° N 21:09:09 57° ENE 21:14:50 10° SSE
Cosmos 1110 Rocket 4.2 21:04:02 10° NNW 21:09:22 81° WSW 21:14:37 10° SSE
SJ-11-01 4.4 21:05:52 10° SSE 21:10:29 66° ENE 21:15:08 10° N
USA 186 3.0 21:11:20 10° SSW 21:14:02 35° W 21:16:35 10° NNW
Abrixas rocket 2.3 21:11:29 10° WNW 21:14:54 80° SSW 21:18:20 10° ESE
Meteor 2-4 Rocket 3.8 21:10:12 10° S 21:16:02 75° E 21:21:58 10° NNE
Cosmos 2333 Rocket 4.0 21:13:00 10° SW 21:18:14 38° WNW 21:23:29 10° N
Okean 2 3.4 21:14:09 10° S 21:18:19 72° E 21:22:29 10° NNE
Meteor 1-19 Rocket 4.4 21:12:49 10° SSW 21:18:26 78° W 21:24:03 10° N
Cosmos 2297 4.1 21:13:36 10° NNW 21:19:17 69° WSW 21:24:57 10° SSE
BREEZE M DEB (TANK) 1.9 21:16:07 10° WNW 21:19:36 59° N 21:21:33 10° E
Tsikada Rocket 4.5 21:18:46 10° SSE 21:24:47 45° E 21:30:48 10° NNE
Cosmos 1726 Rocket 4.3 21:22:43 10° NNW 21:27:05 56° W 21:31:24 10° S
H-2A R/B 4.4 21:26:20 10° SSW 21:29:56 34° W 21:33:36 10° NNW
YAOGAN 6 4.2 21:27:50 11° ESE 21:30:33 23° ENE 21:33:32 10° NNE
PSLV R/B 4.1 21:29:40 10° SW 21:32:53 32° SSE 21:36:06 10° E
ISS -1.8 21:30:55 10° S 21:33:13 18° SE 21:35:30 10° E
Cosmos 2285 Rocket 4.2 21:27:59 10° NNW 21:34:17 73° WSW 21:40:36 10° S
Cosmos 1943 Rocket 4.4 21:35:04 10° NNE 21:37:01 12° NE 21:38:58 10° ENE
Cosmos 1461 2.9 21:34:26 10° NNW 21:38:46 76° NE 21:42:09 15° SE
CZ-2C R/B 2.8 21:37:57 10° SSW 21:39:51 22° W 21:41:47 10° NW
MetOp-A 4.5 21:35:19 11° SE 21:40:14 51° ENE 21:45:25 10° N
Cosmos 494 Rocket 4.4 21:35:13 10° SSW 21:40:17 65° WNW 21:45:23 10° NNE
SPOT 5 2.7 21:36:20 11° SSE 21:40:35 63° ENE 21:44:53 10° N
Cosmos 2058 Rocket 3.9 21:36:32 10° NNW 21:40:48 51° W 21:45:01 10° S
Cosmos 1464 Rocket 4.2 21:38:48 10° NNW 21:44:55 71° W 21:51:02 10° S
Cosmos 1602 Rocket 3.5 21:42:28 10° S 21:46:56 76° E 21:51:25 10° N
CZ-4 SHROUD 3.2 21:46:44 14° SSE 21:49:25 89° WSW 21:52:36 10° NNW
H-2A R/B 3.7 21:48:11 11° ESE 21:51:16 18° ENE 21:54:38 10° NNE
ALOS 4.5 21:49:09 10° SW 21:52:50 23° W 21:56:31 10° NW
GRACE-1 3.8 21:50:00 10° N 21:52:52 83° E 21:55:07 15° S
GRACE-2 3.8 21:50:27 10° N 21:53:20 84° E 21:55:33 15° S
Aureole 2 Rocket 3.4 21:50:23 10° SSW 21:54:15 54° WNW 21:57:47 10° N
Cosmos 1812 Rocket 3.5 21:52:40 10° N 21:57:04 70° E 22:00:27 16° SSE
SPOT 1/Viking Rocket 3.8 21:55:42 17° SE 21:59:33 54° ENE 22:04:34 10° N
Terra 3.5 22:00:40 14° ESE 22:03:12 20° ENE 22:06:39 10° NNE
Cosmos 2034 Rocket 4.3 21:57:09 10° NNW 22:03:29 69° W 22:09:45 10° S
Cosmos 1634 Rocket 4.4 21:58:52 10° N 22:04:49 47° ENE 22:08:55 20° SE
USA 245 4.3 22:05:43 17° SSE 22:10:24 70° ENE 22:15:37 10° N
Atlas Centaur 2 3.7 22:03:44 10° SW 22:10:28 32° SSE 22:15:35 18° ESE
H-2A R/B 3.8 22:06:50 10° SSW 22:10:31 29° W 22:14:19 10° NW
SeaSat 1 2.7 22:07:21 16° SSE 22:11:11 64° WSW 22:16:07 10° NNW
Cosmos 2369 Rocket 2.7 22:07:36 10° NNW 22:13:05 46° ENE 22:16:29 22° ESE
ARGOS 3.3 22:10:34 21° SE 22:14:09 59° ENE 22:19:30 10° N
DEBRIS 3.3 22:10:42 10° WNW 22:14:42 31° SW 22:15:34 24° S
CZ-4C R/B 4.2 22:12:56 24° ESE 22:14:56 39° ENE 22:18:46 10° N
CZ-4B R/B 3.4 22:12:23 10° NNE 22:17:29 82° ESE 22:22:40 10° SSW
SL-16 R/B 4.2 22:15:06 10° WSW 22:20:02 30° NW 22:24:59 10° N
NOAA 11 4.2 22:22:44 24° SSE 22:26:01 69° ENE 22:31:26 10° N
COSMOS 2455 2.8 22:21:32 10° SSW 22:27:33 87° ESE 22:33:36 10° NNE
Cosmos 1953 4.1 22:30:52 10° NNE 22:33:42 18° ENE 22:34:19 18° E
Lacrosse 5 rocket 4.4 22:31:55 10° WNW 22:34:38 17° NNW 22:37:27 10° NNE
Meteor 1-22 Rocket 4.3 22:31:35 10° N 22:37:07 66° ENE 22:40:02 30° SSE
Cosmos 1953 Rocket 3.6 22:35:33 32° SSE 22:37:23 62° E 22:41:47 10° NNE
ATLAS 3B R/B 3.0 22:30:22 10° SSW 22:37:51 56° ESE 22:45:12 10° NE
Cosmos 2346 Rocket 4.4 22:36:44 17° S 22:41:37 87° E 22:47:48 10° N
IGS 5A 4.1 22:43:55 34° ESE 22:44:58 41° ENE 22:48:53 10° N
Cosmos 1066 Rocket 4.2 22:43:47 19° S 22:48:01 86° W 22:53:52 10° N
USA 234 3.4 22:45:49 28° SSE 22:49:24 62° SW 22:55:55 10° NW
Cosmos 407 Rocket 3.5 22:49:25 30° S 22:51:59 65° ESE 22:57:10 10° NNE
Cosmos 1346 Rocket 2.7 22:56:00 42° SSW 22:57:14 81° W 23:01:10 10° N
Cosmos-2242 3.6 22:53:21 10° N 22:57:35 43° ENE 22:58:21 39° ESE
DELTA 2 DEB (DPAF) 4.3 22:56:14 37° S 22:57:56 70° WSW 23:02:26 10° NNW
SL-23 DEB 4.4 22:52:51 10° SSW 23:01:53 12° ENE 23:02:10 10° ENE
SL-24 R/B 4.4 22:54:05 10° N 22:58:59 68° E 23:00:48 39° SSE
Lacrosse 4 Rocket 1.2 22:59:12 56° SSE 22:59:50 66° ESE 23:03:54 10° NE
ISS -2.7 23:06:09 10° WSW 23:09:22 56° NNW 23:12:36 10° NE
BREEZE-M DEB (TANK) 3.6 23:07:12 10° W 23:09:34 30° NNW 23:09:51 29° N
PSLV R/B 4.0 23:06:45 10° WSW 23:09:22 45° WSW 23:09:22 45° WSW
Cosmos 1954 Rocket 4.1 23:09:47 45° SSE 23:11:01 55° ESE 23:16:11 10° NNE
Cosmos 1758 Rocket 3.7 23:10:06 37° SSW 23:11:43 68° W 23:16:05 10° N
USA 238 DEB 4.2 23:10:59 35° SE 23:12:36 40° ESE 23:19:05 10° NE
USA 238 4.2 23:11:09 35° SE 23:12:42 40° ESE 23:19:10 10° NE
Cosmos 1943 3.6 23:07:32 10° SW 23:13:09 64° WNW 23:18:49 10° NNE
Cosmos 1842 3.1 23:13:33 71° ESE 23:13:43 72° E 23:17:39 10° NNE
Meteor 1-21 4.2 23:11:19 32° S 23:14:07 88° WNW 23:19:59 10° N
CARTOSAT-1 3.6 23:14:29 54° S 23:15:24 76° WSW 23:19:45 10° NNW
Cosmos 1758 3.5 23:14:47 10° N 23:18:51 57° E 23:19:02 56° E
Cosmos 1943 Rocket 2.3 23:16:22 10° NNW 23:21:54 65° ENE 23:23:31 44° SE
Spot 4 3.7 23:22:16 55° S 23:23:20 85° WSW 23:28:09 10° NNW
Spot 2 4.4 23:18:58 10° NNE 23:23:44 82° WNW 23:25:25 42° SSW
H-2A R/B 2.3 23:28:49 42° SSW 23:30:12 57° W 23:35:11 10° NNW
Cosmos 1766 4.1 23:30:03 10° NNW 23:33:51 42° W 23:34:21 40° WSW
Cosmos 1092 Rocket 4.3 23:33:02 43° SE 23:34:35 52° E 23:40:39 10° NNE
Cosmos 1656 Rocket 4.4 23:33:35 10° NNW 23:39:02 44° ENE 23:40:41 35° E
Terra 2.5 23:39:33 39° SW 23:40:36 46° W 23:45:12 10° NNW
Cosmos 1842 Rocket 3.5 23:37:08 10° N 23:41:29 67° E 23:41:34 66° E
Cosmos 1570 Rocket 4.1 23:37:12 10° NNW 23:42:34 67° ENE 23:43:34 54° ESE
Cosmos 1850 Rocket 4.0 23:46:11 56° ESE 23:46:25 57° ESE 23:51:33 10° NNE
Nadezhda 4 Rocket 3.9 23:45:01 47° S 23:47:03 87° E 23:53:25 10° N
CZ-4C R/B 3.8 23:54:52 20° E 23:54:52 20° E 23:57:45 10° ENE
